Location: Unspecified
(51.0950°N, 12.9690°E)
Time: 15:33:23
(UTC+00:00)

Cosmos 2058 - Pass Details

Date: 28 October 2021
Orbit: 562 x 582 km, 82.5° (Epoch: 27 November)

Event Time Altitude Azimuth Distance (km) Brightness Sun altitude
Rises 17:28:04 0° 355° (N) 2,815 6.5 -16.0°
Reaches altitude 10° 17:30:26 10° 5° (N) 1,912 5.5 -16.4°
Maximum altitude 17:34:19 35° 72° (ENE) 950 3.5 -17.0°
Enters shadow 17:34:38 35° 82° (E) 960 3.5 -17.0°
